Retour au catalogue

SZ-21 MODULE

ActifScienceVLEO
NORAD 66515·PAYLOAD·🇨🇳 China

Lancé Oct 31, 2025 depuis Jiuquan Satellite Launch Center

Loading…

Prochains Passages (prochaines 24 heures)

TLE

FraisSource: Space-Track

Époque: Sep 13, 2026, 23:53 UTC

1 66515U 25246C   26256.99543840  .00069076  00000-0  28054-3 0  9995
2 66515  41.4690 110.8568 0012029 293.4243  66.5339 15.85143303 47791

Suivez SZ-21 MODULE en temps réel avec AllMySat

Download on the App Store